User: anonymous   Login
Location: Unspecified
(0.0000°N, 0.0000°E)
Time: 14:44:46
(UTC+00:00)
Language:

TMSAT-1 - Orbit

View from above orbital plane
View from above orbital plane
View from above satellite
View from above satellite

Ground track
Ground track

The orbit data is extracted from the following two-line orbital elements,

1 25396U 98043C   17084.85176499 +.00000014 +00000-0 +24803-4 0  9994
2 25396 098.5766 030.7868 0002195 184.1396 175.9765 14.24432862972081
Epoch (UTC): 25 March 2017 20:26:32
Eccentricity: 0.0002195
inclination: 98.5766°
perigee height: 809 km
apogee height: 812 km
right ascension of ascending node: 30.7868°
argument of perigee: 184.1396°
revolutions per day: 14.24432862
mean anomaly at epoch: 175.9765°
orbit number at epoch: 97208

The dashed part of the orbit path shows where the satellite is in the earth's shadow,  

DLR